Le nostre stazioni meteo in Italia

Pubblicità
Il mio iltempo24.it
Capo Mele, Italia (16153): Temperatura & dewpoint: 12.03.2019 20:00:00 - 18.03.2019 20:00:00 (CET)Capo Mele, Italia (16153): velocità del vento: 12.03.2019 20:00:00 - 18.03.2019 20:00:00 (CET)Capo Mele, Italia (16153): direzione del vento: 12.03.2019 20:00:00 - 18.03.2019 20:00:00 (CET)Capo Mele, Italia (16153): reduced air pressure: 12.03.2019 20:00:00 - 18.03.2019 20:00:00 (CET)Capo Mele, Italia (16153): visibility: 12.03.2019 20:00:00 - 18.03.2019 20:00:00 (CET)Capo Mele, Italia (16153): ore di luce: 12.03.2019 20:00:00 - 18.03.2019 20:00:00 (CET)
Data & Tempo tt [°C] td [°C] ff [km/h] ff [kn] dd ppp [hPa] vv [km] sd [min]
18.03.2019 20:00:00 - - - - - - - -
18.03.2019 19:00:00 12,6 2,8 0 0 N 1014,8 20 -
18.03.2019 18:00:00 13,0 5,4 5 3 SO 1014,2 20 42
18.03.2019 17:00:00 15,0 6,8 11 6 SO 1013,2 20 60
18.03.2019 16:00:00 16,0 6,7 24 13 OSO 1013,0 30 60
18.03.2019 15:00:00 16,8 5,1 22 12 SO 1013,0 20 60
18.03.2019 14:00:00 17,4 2,6 18 10 O 1013,0 20 60
18.03.2019 13:00:00 17,8 -1,4 5 3 S 1013,4 20 -
18.03.2019 12:00:00 18,8 -0,1 5 3 O 1012,5 20 60
18.03.2019 11:00:00 17,0 1,4 5 3 NO 1012,4 20 60
18.03.2019 10:00:00 15,6 -0,2 9 5 SO 1012,4 20 60
18.03.2019 09:00:00 14,0 -0,4 5 3 SSE 1010,4 20 36
18.03.2019 08:00:00 11,2 -6,6 5 3 S 1010,2 20 -
18.03.2019 07:00:00 10,2 -5,8 8 4 S 1009,5 20 -
18.03.2019 06:00:00 10,2 8,8 5 3 S 1009,0 20 -
18.03.2019 05:00:00 10,4 8,8 5 3 SSO 1008,9 20 -
18.03.2019 04:00:00 10,8 8,5 9 5 S 1009,3 20 -
18.03.2019 03:00:00 11,2 9,5 8 4 S 1009,4 20 -
18.03.2019 02:00:00 11,0 9,4 9 5 SSO 1009,9 20 -
18.03.2019 01:00:00 11,0 9,4 11 6 SSO 1010,1 20 -
18.03.2019 00:00:00 11,0 9,4 8 4 SSO 1011,2 10 -
17.03.2019 23:00:00 11,0 9,7 8 4 SSO 1011,3 10 -
17.03.2019 22:00:00 12,0 11,2 15 8 SSO 1011,6 15 -
17.03.2019 21:00:00 12,0 11,1 16 9 SSO 1011,6 10 -
17.03.2019 20:00:00 12,0 10,6 18 10 SSO 1012,1 10 -
17.03.2019 19:00:00 11,8 10,5 22 12 SO 1012,4 15 -
17.03.2019 18:00:00 12,0 10,7 22 12 SSO 1012,5 10 0
17.03.2019 17:00:00 12,0 10,2 22 12 SO 1013,4 15 0
17.03.2019 16:00:00 12,8 9,8 28 15 SO 1014,2 20 12
17.03.2019 15:00:00 13,2 9,3 28 15 SO 1014,2 20 6
17.03.2019 14:00:00 13,0 9,4 22 12 SO 1015,1 10 12
17.03.2019 13:00:00 13,6 10,0 18 10 SO 1016,0 10 6
17.03.2019 12:00:00 13,8 10,0 18 10 SSO 1016,3 10 18
17.03.2019 11:00:00 13,2 10,2 15 8 SO 1016,6 10 30
17.03.2019 10:00:00 12,0 10,1 15 8 SSO 1017,0 10 6
17.03.2019 09:00:00 11,4 9,7 5 3 S 1016,6 12 0
17.03.2019 08:00:00 11,2 9,5 8 4 SO 1016,5 10 -
17.03.2019 07:00:00 11,2 10,0 4 2 SO 1016,5 10 -
17.03.2019 06:00:00 11,2 10,0 0 0 N 1016,7 20 -
17.03.2019 05:00:00 11,4 9,8 8 4 NNE 1016,7 20 -
17.03.2019 04:00:00 11,4 9,8 8 4 NNE 1016,8 20 -
17.03.2019 03:00:00 11,6 9,2 4 2 NNE 1017,6 20 -
17.03.2019 02:00:00 11,6 9,2 8 4 NNE 1017,7 20 -
17.03.2019 01:00:00 11,6 10,2 8 4 NNE 1017,9 20 -
17.03.2019 00:00:00 11,6 10,5 8 4 NNE 1018,3 15 -
16.03.2019 23:00:00 11,4 10,6 11 6 NNE 1018,3 10 -
16.03.2019 22:00:00 11,6 10,8 11 6 NNE 1018,2 15 -
16.03.2019 21:00:00 11,8 11,0 4 2 SSE 1017,7 10 -
16.03.2019 20:00:00 12,0 11,2 5 3 S 1017,6 25 -
16.03.2019 19:00:00 12,2 11,1 5 3 S 1017,4 20 -
16.03.2019 18:00:00 13,2 10,6 5 3 S 1017,1 20 6
16.03.2019 17:00:00 15,8 11,4 5 3 SSO 1016,9 20 24
16.03.2019 16:00:00 16,6 11,7 5 3 S 1016,8 20 42
16.03.2019 15:00:00 17,0 11,9 5 3 SSO 1016,9 20 60
16.03.2019 14:00:00 17,2 11,2 5 3 SSO 1017,0 20 60
16.03.2019 13:00:00 16,0 11,8 5 3 SSO 1017,3 20 48
16.03.2019 12:00:00 14,8 12,0 5 3 SSO 1017,5 20 6
16.03.2019 11:00:00 13,2 10,7 8 4 SSO 1017,3 20 0
16.03.2019 10:00:00 13,0 10,2 8 4 SSO 1016,8 10 0
16.03.2019 09:00:00 12,2 9,8 15 8 NNE 1016,4 15 0
16.03.2019 08:00:00 12,0 9,7 22 12 NNE 1016,0 20 -
16.03.2019 07:00:00 11,6 9,4 22 12 NE 1015,7 20 -
16.03.2019 06:00:00 11,0 9,1 13 7 E 1015,6 20 -
16.03.2019 05:00:00 11,0 8,9 9 5 E 1015,5 20 -
16.03.2019 04:00:00 11,0 9,3 8 4 E 1015,5 20 -
16.03.2019 03:00:00 10,8 9,2 9 5 E 1015,5 20 -
16.03.2019 02:00:00 11,2 9,3 0 0 N 1015,9 20 -
16.03.2019 01:00:00 11,4 9,7 0 0 N 1016,0 20 -
16.03.2019 00:00:00 11,8 10,2 0 0 N 1015,9 20 -
15.03.2019 23:00:00 12,0 11,2 0 0 N 1015,6 20 -
15.03.2019 22:00:00 12,0 10,9 0 0 N 1015,2 20 -
15.03.2019 21:00:00 12,0 10,1 0 0 N 1014,4 10 -
15.03.2019 20:00:00 12,0 11,4 18 10 NNE 1014,3 15 -
15.03.2019 19:00:00 12,4 10,8 18 10 NNE 1013,7 10 -
15.03.2019 18:00:00 14,2 11,2 22 12 NNE 1013,2 20 6
15.03.2019 17:00:00 15,0 11,6 11 6 NNE 1013,1 20 12
15.03.2019 16:00:00 14,8 11,0 18 10 NNE 1013,1 20 0
15.03.2019 15:00:00 14,8 11,2 15 8 NNE 1012,8 25 0
15.03.2019 14:00:00 14,4 10,6 11 6 NNE 1013,1 20 0
15.03.2019 13:00:00 14,8 11,0 11 6 NNE 1013,1 20 6
15.03.2019 12:00:00 14,8 10,8 11 6 N 1012,9 20 30
15.03.2019 11:00:00 13,8 8,6 8 4 S 1012,9 20 60
15.03.2019 10:00:00 14,4 9,4 8 4 SO 1012,1 30 60
15.03.2019 09:00:00 10,6 4,3 5 3 SO 1011,9 20 42
15.03.2019 08:00:00 10,6 4,3 0 0 N 1011,8 20 0
15.03.2019 07:00:00 9,8 6,0 5 3 SO 1011,5 30 0
15.03.2019 06:00:00 10,0 5,2 0 0 N 1010,7 20 -
15.03.2019 05:00:00 9,6 7,2 0 0 N 1010,5 30 -
15.03.2019 04:00:00 9,8 7,6 0 0 N 1010,6 20 -
15.03.2019 03:00:00 9,8 7,6 5 3 N 1010,7 20 -
15.03.2019 02:00:00 9,8 7,4 0 0 N 1010,6 20 -
15.03.2019 01:00:00 10,0 6,7 0 0 N 1010,5 20 -
15.03.2019 00:00:00 10,0 7,1 0 0 N 1010,5 20 -
14.03.2019 23:00:00 10,0 6,7 5 3 NNE 1010,4 20 -
14.03.2019 22:00:00 10,0 7,2 5 3 NNE 1010,4 30 -
14.03.2019 21:00:00 10,4 7,5 0 0 N 1010,0 20 -
14.03.2019 20:00:00 11,0 5,3 8 4 SSO 1009,9 30 -
14.03.2019 19:00:00 13,0 6,4 9 5 SSO 1010,0 20 18
14.03.2019 18:00:00 13,0 6,1 18 10 SSO 1010,1 20 60
14.03.2019 17:00:00 14,0 6,6 28 15 OSO 1010,1 20 60
14.03.2019 16:00:00 14,4 8,4 28 15 OSO 1011,1 20 60
14.03.2019 15:00:00 15,0 8,9 28 15 SSO 1012,1 20 60
14.03.2019 14:00:00 15,0 6,6 28 15 O 1013,1 20 60
14.03.2019 13:00:00 14,0 7,1 18 10 OSO 1014,2 40 60
14.03.2019 12:00:00 15,8 6,2 9 5 S 1014,5 40 60
14.03.2019 11:00:00 15,0 6,6 9 5 SSE 1015,0 50 60
14.03.2019 10:00:00 13,8 5,7 8 4 ESE 1015,2 50 60
14.03.2019 09:00:00 12,0 5,6 8 4 E 1014,9 50 60
14.03.2019 08:00:00 10,4 -2,0 5 3 N 1014,5 50 -
14.03.2019 07:00:00 10,8 -2,9 5 3 NNE 1014,5 50 -
14.03.2019 06:00:00 11,0 -3,5 5 3 N 1014,5 45 -
14.03.2019 05:00:00 11,4 -2,8 9 5 NNE 1014,4 40 -
14.03.2019 04:00:00 11,0 -3,1 9 5 NNE 1014,7 20 -
14.03.2019 03:00:00 10,6 -3,8 4 2 NNE 1014,9 40 -
14.03.2019 02:00:00 10,8 0,2 0 0 N 1014,9 40 -
14.03.2019 01:00:00 10,6 -3,5 5 3 NNE 1014,5 20 -
14.03.2019 00:00:00 11,0 -4,3 5 3 N 1014,5 35 -
13.03.2019 23:00:00 11,0 5,8 9 5 NNE 1013,5 20 -
13.03.2019 22:00:00 11,0 3,8 9 5 N 1012,7 35 -
13.03.2019 21:00:00 11,0 4,0 5 3 NNE 1012,4 35 -
13.03.2019 20:00:00 10,6 6,0 0 0 N 1012,2 20 -
13.03.2019 19:00:00 11,4 4,8 0 0 N 1011,4 20 -
13.03.2019 18:00:00 12,0 7,3 0 0 N 1009,8 20 0
13.03.2019 17:00:00 12,6 7,7 5 3 SSE 1009,5 20 30
13.03.2019 16:00:00 14,8 9,8 0 0 N 1009,1 20 60
13.03.2019 15:00:00 17,8 9,2 5 3 SSE 1008,7 20 60
13.03.2019 14:00:00 18,2 13,1 9 5 SSE 1010,6 30 60
13.03.2019 13:00:00 14,8 9,4 9 5 SSE 1011,0 20 -
13.03.2019 12:00:00 13,8 8,0 5 3 SSE 1011,9 20 60
13.03.2019 11:00:00 13,6 5,3 5 3 SSE 1011,9 20 42
13.03.2019 10:00:00 12,2 3,4 5 3 NNE 1012,6 20 24
13.03.2019 09:00:00 10,0 3,5 0 0 N 1012,7 20 12
13.03.2019 08:00:00 8,6 3,4 0 0 N 1013,7 20 -
13.03.2019 07:00:00 9,0 3,8 5 3 SSO 1013,8 20 -
13.03.2019 06:00:00 9,0 3,4 5 3 SSO 1014,7 30 -
13.03.2019 05:00:00 9,0 3,2 5 3 SSO 1015,5 20 -
13.03.2019 04:00:00 9,0 3,4 8 4 SSO 1017,5 35 -
13.03.2019 03:00:00 9,0 4,6 8 4 SO 1018,1 20 -
13.03.2019 02:00:00 9,0 4,4 5 3 SSO 1019,5 35 -
13.03.2019 01:00:00 9,4 4,2 8 4 SO 1019,7 20 -
13.03.2019 00:00:00 9,8 5,0 22 12 SSO 1020,8 35 -
12.03.2019 23:00:00 10,0 4,8 18 10 SO 1020,7 20 -
12.03.2019 22:00:00 10,2 1,3 28 15 SO 1020,8 35 -
12.03.2019 21:00:00 10,4 1,0 29 16 SO 1020,7 20 -
12.03.2019 20:00:00 10,6 -0,8 37 20 SO 1020,7 40 -

tt = Temperatura
td = dewpoint
ff = velocità del vento
dd = direzione del vento
ppp = reduced air pressure
vv = visibility
sd = ore di luce

Stazioni seguenti

WeatherPro
AMSI
MeteoEarth